CAPE
1151 1414 1688 1846 1779 1609 1566 1535 1532 1605 1719 1524 1563 1680 1548 1435 1307 1238 1216 1124 1079 1104 756 1037 1273 941 875 835 1115 967 848 716 611 570 276 456 88 94 43 160 92 24 251
1378 1333 1539 1883 1979 1790 1747 1689 1700 1788 1861 1597 1702 1731 1571 1438 1369 1294 1220 1151 1145 1076 767 1031 1228 633 632 770 825 733 661 578 529 509 596 483 136 92 33 29 41 48 147
1595 1448 1436 1578 2031 1964 1940 1862 1875 2015 1974 1741 1794 1828 1741 1575 1518 1415 1284 1198 1326 1428 1064 805 492 622 597 874 754 624 504 297 154 172 110 11 22 63 37 30 36 35 47
1715 1612 1412 1529 1868 2139 1975 1871 1930 2078 2076 1808 1889 1978 1941 1816 1706 1595 1407 1362 1368 1466 1215 1009 914 686 848 696 554 554 342 143 64 32 10 19 39 62 35 26 28 11 21
1857 1822 1749 1496 1781 2175 2032 1920 1915 2018 2016 1830 1881 2125 2071 2007 1871 1781 1425 1163 1252 1429 1152 1096 781 916 759 473 385 293 215 27 0 0 6 10 22 54 41 27 7 16 12
1838 1913 1725 1556 1656 2169 2144 2053 1984 1998 1774 1069 774 1392 2300 2160 2037 1679 1225 1168 1253 1373 1313 862 795 785 537 460 458 301 70 5 0 0 0 10 5 36 25 20 29 21 11
1811 1876 1619 1367 1414 1914 2195 2179 2017 1714 984 406 180 222 351 1710 1797 1501 1123 1105 1058 1190 1250 741 619 317 150 85 24 0 0 6 0 0 1 6 16 33 11 6 17 6 15
1535 1781 1796 1452 1239 1391 1664 1867 1164 1171 764 404 143 96 46 514 1294 1232 1055 968 827 958 677 459 212 129 9 3 0 0 1 0 0 0 0 6 26 27 9 4 15 21 21
1063 1187 1171 1407 1188 919 905 988 793 643 501 157 20 0 2 13 713 1037 925 885 824 597 415 210 87 40 0 0 0 0 0 0 0 0 0 3 24 8 18 0 8 21 19
775 737 1051 1065 1101 910 687 390 319 202 105 39 56 5 9 16 344 468 606 667 475 393 224 100 27 0 0 0 0 0 0 0 0 0 4 22 24 11 9 22 15 20 15
11 191 731 964 904 637 535 347 248 121 73 89 68 39 1 120 214 239 374 396 374 205 122 66 9 0 0 0 0 0 0 0 0 0 7 43 20 17 8 22 20 14 13
135 5 236 664 866 363 280 203 65 48 95 47 0 31 25 142 109 182 186 213 202 120 58 3 0 0 0 0 0 0 0 0 0 0 1 30 24 17 23 20 17 12 8
178 55 39 438 543 530 179 68 0 19 54 39 5 58 126 91 106 93 95 89 66 12 0 0 0 0 0 0 0 0 0 0 0 0 5 30 34 22 23 18 12 8 6
196 53 0 139 228 283 215 128 160 95 144 62 38 65 71 98 61 57 31 42 12 1 0 0 0 0 0 0 0 1 0 0 0 0 3 21 16 17 17 11 10 5 5
165 24 0 0 98 150 99 81 43 65 117 113 48 40 63 42 15 32 14 2 13 0 0 0 0 0 0 0 0 0 0 0 0 0 0 12 19 25 14 9 7 5 4
161 54 13 7 40 74 25 0 4 13 9 95 81 54 39 37 26 24 24 12 1 0 0 0 0 0 0 0 0 0 0 0 0 0 0 0 8 16 15 9 7 7 4
217 141 25 8 0 21 14 4 4 6 5 2 45 64 32 35 25 56 24 16 5 0 0 0 0 0 0 0 0 0 0 2 0 0 0 0 0 3 14 12 9 7 5
256 248 102 56 3 12 64 24 6 0 0 12 63 46 34 44 64 35 38 28 12 1 0 0 0 0 0 0 2 0 7 2 0 0 0 0 0 0 2 10 13 11 5
137 273 81 33 2 1 22 4 0 0 3 3 5 55 73 62 80 64 40 25 16 6 4 9 5 4 0 0 1 3 8 4 0 0 0 0 0 0 0 1 4 8 7
52 165 8 0 0 7 3 6 2 0 2 0 0 3 45 20 35 65 50 62 23 0 7 26 20 0 0 0 3 1 10 6 4 0 0 0 0 0 0 0 0 0 0
36 14 0 0 0 1 0 0 0 0 0 0 0 8 22 22 30 19 6 8 15 0 41 53 14 0 0 13 14 17 15 50 19 1 21 1 0 0 0 0 0 0 0
95 8 0 0 0 2 0 0 0 0 0 0 0 0 8 13 31 4 1 5 3 21 48 56 38 6 16 9 6 21 9 6 1 18 14 18 5 0 0 0 0 0 0
135 13 0 0 0 0 11 8 0 0 0 0 0 0 5 21 35 4 3 21 19 38 57 72 46 4 4 6 13 0 0 0 2 6 1 2 4 0 0 0 0 0 0
164 26 0 0 0 0 12 7 0 0 0 0 2 5 7 11 16 13 11 11 15 20 49 45 0 1 5 0 0 10 11 11 0 0 0 0 0 0 0 5 11 2 1
159 32 0 0 0 4 0 7 0 0 0 0 9 0 11 15 4 3 3 9 12 1 0 0 5 11 12 0 0 0 48 33 17 5 2 1 14 5 2 13 18 2 3
162 60 0 0 1 4 0 4 0 0 0 0 0 0 9 5 2 0 0 0 5 4 1 3 23 15 48 22 2 12 37 35 29 42 13 3 0 0 0 0 0 0 8
CIN
-204 -169 -111 -79 -98 -133 -123 -72 -52 -42 -24 -32 -24 -2 -3 -4 -12 -15 -3 -1 -0 -0 -2 -0 -0 -0 -0 -0 -0 -0 -0 -0 -0 -0 -0 -0 -18 -21 -58 -5 -9 -0 -0
-60 -175 -135 -67 -52 -78 -72 -65 -34 -13 -4 -13 -3 -2 -3 -5 -3 -7 -6 -0 -0 -0 -0 -0 -0 -0 -0 -0 -0 -0 -0 -0 -0 -0 -0 -0 -3 -14 -0 -2 -0 -0 -4
-63 -78 -145 -102 -30 -33 -29 -30 -12 -1 -1 -13 -2 -0 -0 -0 -0 -0 -0 -0 -0 -0 -0 -0 -0 -0 -0 -0 -0 -0 -0 -0 -15 -10 -19 -0 -1 -41 -0 -0 -1 -0 -0
-51 -75 -74 -114 -50 -9 -12 -13 -6 -0 -0 -0 -7 -2 -0 -0 -0 -0 -0 -0 -0 -0 -0 -0 -0 -0 -0 -0 -0 -0 -0 -4 -60 -45 -7 -0 -0 -0 -0 -0 -0 -0 -0
-42 -88 -60 -56 -72 -14 -23 -26 -8 -0 -0 -0 -0 -0 -0 -0 -0 -0 -1 -1 -0 -0 -0 -0 -0 -0 -1 -8 -9 -7 -10 -80 -0 -3 -24 -1 -1 -0 -0 -0 -0 -0 -0
-69 -36 -58 -56 -85 -20 -20 -20 -4 -1 -2 -13 -12 -7 -0 -0 -0 -0 -3 -1 -0 -0 -0 -0 -0 -0 -13 -17 -11 -13 -57 -24 -0 -0 -0 -1 -0 -0 -0 -0 -0 -0 -0
-103 -66 -63 -73 -88 -26 -0 -0 -0 -2 -11 -81 -77 -64 -0 -1 -0 -0 -3 -1 -0 -0 -0 -0 -1 -23 -40 -48 -71 -0 -0 -16 -0 -0 -0 -0 -2 -0 -0 -0 -0 -0 -0
-114 -72 -52 -57 -93 -56 -25 -1 -38 -20 -65 -107 -134 -24 -0 -1 -2 -1 -3 -1 -0 -1 -0 -0 -25 -38 -29 -122 -0 -0 -0 -0 -0 -0 -0 -0 -0 -0 -0 -0 -0 -0 -0
-112 -89 -97 -49 -54 -73 -71 -51 -46 -34 -43 -53 -67 -0 -41 -0 -8 -6 -3 -0 -0 -2 -14 -6 -38 -59 -0 -0 -0 -0 -0 -0 -0 -0 -0 -0 -1 -0 -0 -0 -0 -0 -0
-126 -121 -70 -68 -38 -31 -38 -69 -98 -73 -58 -162 -62 -137 -135 -3 -7 -23 -26 -21 -7 -15 -18 -25 -48 -0 -0 -0 -0 -0 -0 -0 -0 -0 -3 -10 -2 -0 -0 -0 -0 -0 -0
-174 -200 -65 -24 -39 -21 -26 -65 -103 -109 -125 -69 -50 -17 -0 -7 -4 -18 -30 -17 -18 -50 -53 -50 -104 -0 -0 -0 -0 -0 -0 -0 -0 -0 -7 -4 -1 -0 -0 -0 -0 -0 -0
-157 -104 -121 -30 -18 -62 -78 -73 -103 -135 -95 -99 -0 -4 -0 -0 -4 -16 -22 -26 -10 -17 -62 -34 -0 -0 -0 -0 -0 -0 -0 -0 -0 -0 -1 -4 -0 -0 -0 -0 -0 -0 -0
-97 -120 -218 -51 -25 -19 -102 -86 -0 -146 -89 -51 -33 -3 -0 -0 -13 -17 -10 -3 -4 -23 -0 -0 -0 -0 -0 -0 -0 -0 -0 -0 -0 -0 -5 -3 -0 -0 -0 -0 -0 -0 -0
-91 -121 -0 -93 -61 -38 -76 -89 -38 -67 -59 -51 -13 -4 -37 -2 -16 -8 -60 -20 -39 -54 -0 -0 -0 -0 -0 -0 -0 -1 -0 -0 -0 -0 -5 -6 -1 -0 -0 -0 -0 -0 -0
-141 -235 -0 -0 -98 -49 -47 -65 -74 -78 -45 -17 -25 -32 -3 -6 -15 -28 -30 -41 -46 -0 -0 -0 -0 -0 -0 -0 -0 -0 -0 -0 -0 -0 -0 -14 -5 -0 -0 -0 -0 -0 -0
-240 -246 -251 -102 -159 -108 -112 -0 -6 -22 -23 -18 -7 -10 -25 -11 -13 -7 -9 -32 -1 -0 -0 -0 -0 -0 -0 -0 -0 -0 -1 -1 -0 -0 -0 -3 -13 -2 -0 -0 -0 -0 -0
-205 -230 -241 -193 -9 -218 -158 -0 -2 -1 -12 -2 -7 -13 -12 -12 -3 -0 -1 -7 -6 -0 -0 -0 -0 -0 -0 -0 -0 -0 -0 -3 -0 -0 -0 -0 -0 -15 -5 -0 -0 -0 -0
-235 -198 -222 -196 -93 -28 -185 -7 -0 -0 -0 -0 -0 -3 -0 -0 -0 -0 -0 -1 -7 -0 -0 -0 -0 -0 -0 -0 -1 -1 -4 -3 -0 -0 -0 -0 -0 -0 -5 -3 -1 -0 -0
-225 -218 -203 -179 -111 -12 -5 -0 -0 -0 -1 -0 -0 -10 -23 -0 -0 -0 -1 -1 -11 -0 -23 -39 -65 -119 -0 -0 -0 -6 -5 -4 -0 -0 -0 -0 -0 -0 -0 -5 -3 -4 -0
-217 -212 -55 -18 -0 -9 -0 -0 -0 -0 -0 -0 -0 -0 -6 -0 -6 -3 -0 -0 -17 -0 -3 -2 -19 -0 -0 -0 -65 -0 -2 -5 -29 -0 -0 -0 -0 -0 -0 -0 -0 -0 -0
-123 -199 -0 -0 -0 -12 -0 -0 -0 -0 -0 -0 -0 -0 -0 -0 -0 -0 -0 -0 -1 -0 -6 -0 -6 -0 -2 -31 -36 -12 -3 -5 -29 -17 -53 -11 -0 -0 -0 -0 -0 -0 -0
-92 -32 -0 -0 -0 -1 -0 -0 -0 -0 -0 -0 -0 -0 -1 -23 -21 -0 -0 -0 -0 -3 -2 -0 -7 -49 -47 -46 -48 -44 -14 -7 -14 -17 -31 -53 -57 -0 -0 -0 -0 -0 -0
-99 -30 -0 -0 -0 -0 -0 -0 -0 -0 -0 -0 -0 -0 -11 -0 -0 -0 -0 -0 -0 -0 -1 -0 -0 -47 -41 -28 -42 -0 -0 -0 -65 -28 -26 -7 -4 -51 -0 -0 -0 -0 -0
-116 -155 -0 -0 -0 -0 -0 -0 -0 -0 -0 -0 -0 -0 -0 -0 -0 -0 -4 -7 -25 -2 -0 -1 -3 -58 -69 -0 -0 -68 -81 -133 -0 -0 -0 -0 -7 -0 -3 -3 -7 -16 -4
-139 -207 -0 -0 -0 -4 -0 -0 -0 -0 -0 -0 -0 -0 -0 -0 -0 -0 -0 -0 -0 -0 -0 -0 -101 -132 -93 -1 -0 -7 -30 -25 -59 -65 -0 -0 -3 -3 -2 -15 -12 -10 -24
-162 -228 -0 -0 -10 -0 -0 -0 -0 -0 -0 -0 -0 -0 -0 -0 -0 -0 -0 -0 -0 -0 -0 -0 -95 -138 -116 -107 -39 -103 -33 -22 -45 -64 -19 -13 -0 -4 -0 -0 -0 -4 -20
Wind_Speed
35 36 39 42 40 42 44 41 41 41 43 46 48 50 50 48 46 46 43 41 42 39 37 34 35 39 42 44 43 39 35 33 31 33 33 32 nan nan nan 29 nan nan 30
39 35 39 41 42 39 39 40 37 36 38 42 44 47 49 49 46 46 45 42 41 39 36 35 36 39 42 44 40 36 35 33 33 36 33 33 34 nan nan nan nan nan 31
36 36 35 36 36 37 35 35 32 33 35 40 42 43 45 45 44 44 45 44 39 41 39 37 36 40 42 40 37 35 34 34 34 35 31 nan nan nan nan nan nan nan nan
35 33 30 35 34 36 36 34 35 33 37 39 43 42 41 43 38 38 38 40 40 38 41 42 40 41 42 38 35 32 33 34 nan nan nan nan nan nan nan nan nan nan nan
33 33 35 37 34 35 35 36 38 36 38 40 41 41 42 39 41 37 38 38 42 39 39 41 40 37 37 35 33 29 29 nan nan nan nan nan nan nan nan nan nan nan nan
33 32 34 33 33 36 37 39 34 36 39 42 39 36 35 35 32 39 39 38 39 41 39 41 36 33 35 32 27 27 nan nan nan nan nan nan nan nan nan nan nan nan nan
33 34 31 31 30 33 35 36 36 35 49 49 50 48 28 29 32 36 39 37 37 37 40 38 36 32 34 nan nan nan nan nan nan nan nan nan nan nan nan nan nan nan nan
33 32 30 33 30 30 33 36 37 44 41 44 43 nan nan 24 36 35 38 37 38 42 43 36 32 38 nan nan nan nan nan nan nan nan nan nan nan nan nan nan nan nan nan
31 27 29 30 31 30 32 35 36 37 30 27 nan nan nan nan 32 30 31 38 38 39 38 34 nan nan nan nan nan nan nan nan nan nan nan nan nan nan nan nan nan nan nan
32 26 20 28 27 21 22 28 28 26 29 nan nan nan nan nan 14 32 32 36 36 44 41 36 nan nan nan nan nan nan nan nan nan nan nan nan nan nan nan nan nan nan nan
nan 27 22 21 25 22 24 21 25 29 nan nan nan nan nan 26 22 31 33 36 42 42 49 nan nan nan nan nan nan nan nan nan nan nan nan nan nan nan nan nan nan nan nan
38 nan 24 21 23 25 26 23 nan nan nan nan nan nan nan 37 36 30 35 38 41 36 nan nan nan nan nan nan nan nan nan nan nan nan nan nan nan nan nan nan nan nan nan
29 nan nan 22 22 22 23 nan nan nan nan nan nan nan 31 nan 24 nan nan nan nan nan nan nan nan nan nan nan nan nan nan nan nan nan nan nan nan nan nan nan nan nan nan
29 nan nan 24 21 21 22 18 16 nan 16 nan nan nan nan nan nan nan nan nan nan nan nan nan nan nan nan nan nan nan nan nan nan nan nan nan nan nan nan nan nan nan nan
29 nan nan nan nan 22 nan nan nan nan 13 17 nan nan nan nan nan nan nan nan nan nan nan nan nan nan nan nan nan nan nan nan nan nan nan nan nan nan nan nan nan nan nan
30 nan nan nan nan nan nan nan nan nan nan nan nan nan nan nan nan nan nan nan nan nan nan nan nan nan nan nan nan nan nan nan nan nan nan nan nan nan nan nan nan nan nan
24 28 nan nan nan nan nan nan nan nan nan nan nan nan nan nan nan nan nan nan nan nan nan nan nan nan nan nan nan nan nan nan nan nan nan nan nan nan nan nan nan nan nan
27 27 25 nan nan nan nan nan nan nan nan nan nan nan nan nan nan nan nan nan nan nan nan nan nan nan nan nan nan nan nan nan nan nan nan nan nan nan nan nan nan nan nan
27 25 nan nan nan nan nan nan nan nan nan nan nan nan nan nan nan nan nan nan nan nan nan nan nan nan nan nan nan nan nan nan nan nan nan nan nan nan nan nan nan nan nan
nan 25 nan nan nan nan nan nan nan nan nan nan nan nan nan nan nan nan nan nan nan nan nan nan nan nan nan nan nan nan nan nan nan nan nan nan nan nan nan nan nan nan nan
nan nan nan nan nan nan nan nan nan nan nan nan nan nan nan nan nan nan nan nan nan nan nan nan nan nan nan nan nan nan nan nan nan nan nan nan nan nan nan nan nan nan nan
nan nan nan nan nan nan nan nan nan nan nan nan nan nan nan nan nan nan nan nan nan nan nan nan nan nan nan nan nan nan nan nan nan nan nan nan nan nan nan nan nan nan nan
23 nan nan nan nan nan nan nan nan nan nan nan nan nan nan nan nan nan nan nan nan nan nan nan nan nan nan nan nan nan nan nan nan nan nan nan nan nan nan nan nan nan nan
22 nan nan nan nan nan nan nan nan nan nan nan nan nan nan nan nan nan nan nan nan nan nan nan nan nan nan nan nan nan nan nan nan nan nan nan nan nan nan nan nan nan nan
27 nan nan nan nan nan nan nan nan nan nan nan nan nan nan nan nan nan nan nan nan nan nan nan nan nan nan nan nan nan nan nan nan nan nan nan nan nan nan nan nan nan nan
26 nan nan nan nan nan nan nan nan nan nan nan nan nan nan nan nan nan nan nan nan nan nan nan nan nan nan nan nan nan nan nan nan nan nan nan nan nan nan nan nan nan nan
Wind_Direction
294 299 297 293 289 288 286 280 274 271 270 269 267 266 266 264 260 262 260 259 264 266 263 266 264 264 261 255 252 250 249 248 254 259 262 264 nan nan nan 262 nan nan 266
298 297 292 291 294 290 282 280 278 280 276 274 269 267 266 266 264 261 260 255 257 261 263 263 266 269 259 257 250 247 248 250 250 255 260 261 264 nan nan nan nan nan 265
298 299 296 292 286 290 287 284 285 286 286 284 278 274 269 266 266 263 261 255 258 256 261 265 269 270 263 255 251 252 254 252 251 255 258 nan nan nan nan nan nan nan nan
303 304 294 287 287 293 291 291 292 295 294 287 283 278 273 272 272 263 259 251 256 258 259 264 264 266 260 256 254 252 255 258 nan nan nan nan nan nan nan nan nan nan nan
293 299 292 292 292 294 295 294 298 297 296 293 284 277 274 270 269 269 256 255 256 260 262 258 255 256 256 252 254 257 257 nan nan nan nan nan nan nan nan nan nan nan nan
292 291 284 289 292 294 300 300 303 297 298 280 266 263 267 268 270 269 260 257 258 260 257 256 246 249 244 249 249 252 nan nan nan nan nan nan nan nan nan nan nan nan nan
292 297 300 294 302 295 299 301 305 292 289 278 269 245 210 260 270 260 256 258 257 253 256 247 246 242 240 nan nan nan nan nan nan nan nan nan nan nan nan nan nan nan nan
294 302 302 306 308 298 292 297 291 298 293 293 256 nan nan 203 249 251 256 251 258 252 254 241 231 233 nan nan nan nan nan nan nan nan nan nan nan nan nan nan nan nan nan
278 302 307 306 303 298 286 287 293 305 307 300 nan nan nan nan 236 244 252 248 248 250 246 240 nan nan nan nan nan nan nan nan nan nan nan nan nan nan nan nan nan nan nan
279 283 293 309 304 304 303 303 319 314 312 nan nan nan nan nan 237 242 249 267 253 253 246 247 nan nan nan nan nan nan nan nan nan nan nan nan nan nan nan nan nan nan nan
nan 289 294 302 303 306 310 313 324 314 nan nan nan nan nan 180 220 243 239 246 249 266 251 nan nan nan nan nan nan nan nan nan nan nan nan nan nan nan nan nan nan nan nan
301 nan 299 296 297 298 301 313 nan nan nan nan nan nan nan 226 235 230 232 246 250 250 nan nan nan nan nan nan nan nan nan nan nan nan nan nan nan nan nan nan nan nan nan
302 nan nan 296 292 300 302 nan nan nan nan nan nan nan 174 nan 208 nan nan nan nan nan nan nan nan nan nan nan nan nan nan nan nan nan nan nan nan nan nan nan nan nan nan
310 nan nan 302 298 299 291 295 297 nan 295 nan nan nan nan nan nan nan nan nan nan nan nan nan nan nan nan nan nan nan nan nan nan nan nan nan nan nan nan nan nan nan nan
311 nan nan nan nan 305 nan nan nan nan 278 284 nan nan nan nan nan nan nan nan nan nan nan nan nan nan nan nan nan nan nan nan nan nan nan nan nan nan nan nan nan nan nan
314 nan nan nan nan nan nan nan nan nan nan nan nan nan nan nan nan nan nan nan nan nan nan nan nan nan nan nan nan nan nan nan nan nan nan nan nan nan nan nan nan nan nan
316 309 nan nan nan nan nan nan nan nan nan nan nan nan nan nan nan nan nan nan nan nan nan nan nan nan nan nan nan nan nan nan nan nan nan nan nan nan nan nan nan nan nan
307 309 309 nan nan nan nan nan nan nan nan nan nan nan nan nan nan nan nan nan nan nan nan nan nan nan nan nan nan nan nan nan nan nan nan nan nan nan nan nan nan nan nan
305 306 nan nan nan nan nan nan nan nan nan nan nan nan nan nan nan nan nan nan nan nan nan nan nan nan nan nan nan nan nan nan nan nan nan nan nan nan nan nan nan nan nan
nan 307 nan nan nan nan nan nan nan nan nan nan nan nan nan nan nan nan nan nan nan nan nan nan nan nan nan nan nan nan nan nan nan nan nan nan nan nan nan nan nan nan nan
nan nan nan nan nan nan nan nan nan nan nan nan nan nan nan nan nan nan nan nan nan nan nan nan nan nan nan nan nan nan nan nan nan nan nan nan nan nan nan nan nan nan nan
nan nan nan nan nan nan nan nan nan nan nan nan nan nan nan nan nan nan nan nan nan nan nan nan nan nan nan nan nan nan nan nan nan nan nan nan nan nan nan nan nan nan nan
301 nan nan nan nan nan nan nan nan nan nan nan nan nan nan nan nan nan nan nan nan nan nan nan nan nan nan nan nan nan nan nan nan nan nan nan nan nan nan nan nan nan nan
298 nan nan nan nan nan nan nan nan nan nan nan nan nan nan nan nan nan nan nan nan nan nan nan nan nan nan nan nan nan nan nan nan nan nan nan nan nan nan nan nan nan nan
298 nan nan nan nan nan nan nan nan nan nan nan nan nan nan nan nan nan nan nan nan nan nan nan nan nan nan nan nan nan nan nan nan nan nan nan nan nan nan nan nan nan nan
290 nan nan nan nan nan nan nan nan nan nan nan nan nan nan nan nan nan nan nan nan nan nan nan nan nan nan nan nan nan nan nan nan nan nan nan nan nan nan nan nan nan nan